CAPE
nan nan nan nan nan nan nan nan nan nan nan nan nan nan nan nan nan nan nan nan nan nan nan nan nan nan nan nan nan nan nan 0 2 2 4 4 3 3 3 3 3 4 7 8 8 9 10 10 10 11 13 15 17 17 19 18 18 15 13 13 13 17 24 32 32 41 52 65 74 74 77 82 86 86 90 88 87 87 81 77 77 79 90 108 108 118
nan nan nan nan nan nan nan nan nan nan nan nan nan nan nan nan nan nan nan nan nan nan nan nan nan nan nan nan nan nan nan nan 1 1 2 2 2 2 2 3 3 4 6 7 7 8 9 9 9 9 9 10 13 13 14 13 13 10 10 11 11 13 19 29 29 37 45 58 66 66 71 76 80 80 80 76 66 66 69 68 68 69 86 106 106 117
nan nan nan nan nan nan nan nan nan nan nan nan nan nan nan nan nan nan nan nan nan nan nan nan nan nan nan nan nan nan nan nan 0 0 1 1 1 1 1 2 2 4 6 8 8 10 9 9 9 9 8 8 10 10 10 9 9 7 7 8 8 11 16 23 23 32 39 46 55 55 62 62 66 66 59 55 51 51 56 61 61 68 87 106 106 116
nan nan nan nan nan nan nan nan nan nan nan nan nan nan nan nan nan nan nan nan nan nan nan nan nan nan nan nan nan nan nan nan 0 0 0 0 0 0 0 1 1 3 6 8 8 9 9 9 9 9 8 8 8 8 9 8 8 6 5 6 6 9 14 20 20 29 32 36 43 43 46 50 48 48 44 42 43 43 50 64 64 81 86 98 98 110
nan nan nan nan nan nan nan nan nan nan nan nan nan nan nan nan nan nan nan nan nan nan nan nan nan nan nan nan nan nan nan nan nan nan nan nan nan nan nan 0 0 2 4 6 6 9 9 8 8 8 7 7 7 7 8 6 6 5 4 5 5 8 13 19 19 25 31 34 35 35 38 37 37 37 37 39 40 40 46 66 66 82 89 94 94 104
nan nan nan nan nan nan nan nan nan nan nan nan nan nan nan nan nan nan nan nan nan nan nan nan nan nan nan nan nan nan nan nan nan nan nan nan nan nan nan 0 0 1 3 5 5 7 8 8 8 7 6 6 7 7 7 7 7 5 3 4 4 7 12 18 18 23 27 33 36 36 35 33 34 34 35 35 38 38 42 54 54 85 90 98 98 111
nan nan nan nan nan nan nan nan nan nan nan nan nan nan nan nan nan nan nan nan nan nan nan nan nan nan nan nan nan nan nan nan nan nan nan nan nan nan nan nan nan 0 1 4 4 6 6 6 6 5 4 5 6 6 6 6 6 4 3 3 3 7 12 16 16 21 24 28 33 33 34 35 35 35 35 33 35 35 40 50 50 72 93 103 103 109
nan nan nan nan nan nan nan nan nan nan nan nan nan nan nan nan nan nan nan nan nan nan nan nan nan nan nan nan nan nan nan nan nan nan nan nan nan nan nan nan nan nan nan 0 0 1 1 1 1 2 2 3 3 3 3 3 3 2 2 3 3 6 10 15 15 20 22 24 27 27 29 32 36 36 37 35 34 34 36 42 42 51 66 91 91 113
nan nan nan nan nan nan nan nan nan nan nan nan nan nan nan nan nan nan nan nan nan nan nan nan nan nan nan nan nan nan nan nan nan nan nan nan nan nan nan nan nan nan nan nan nan nan nan 0 0 0 1 1 1 1 2 2 2 2 2 3 3 6 11 15 15 18 21 23 26 26 29 30 32 32 35 34 34 34 35 40 40 46 60 79 79 107
nan nan nan nan nan nan nan nan nan nan nan nan nan nan nan nan nan nan nan nan nan nan nan nan nan nan nan nan nan nan nan nan nan nan nan nan nan nan nan nan nan nan nan nan nan nan nan nan nan nan 0 0 0 0 1 1 1 1 2 4 4 7 11 15 15 18 20 23 24 24 27 29 30 30 34 39 37 37 36 36 36 42 54 71 71 95
nan nan nan nan nan nan nan nan nan nan nan nan nan nan nan nan nan nan nan nan nan nan nan nan nan nan nan nan nan nan nan nan nan nan nan nan nan nan nan nan nan nan nan nan nan nan nan nan nan nan nan nan nan nan nan 0 0 1 3 5 5 9 13 15 15 18 19 21 24 24 26 27 31 31 33 38 35 35 35 39 39 41 55 67 67 86
nan nan nan nan nan nan nan nan nan nan nan nan nan nan nan nan nan nan nan nan nan nan nan nan nan nan nan nan nan nan nan nan nan nan nan nan nan nan nan nan nan nan nan nan nan nan nan nan nan nan nan nan nan nan nan nan nan 2 4 6 6 10 12 15 15 17 19 20 23 23 26 28 31 31 35 37 36 36 36 40 40 45 57 71 71 85
nan nan nan nan nan nan nan nan nan nan nan nan nan nan nan nan nan nan nan nan nan nan nan nan nan nan nan nan nan nan nan nan nan nan nan nan nan nan nan nan nan nan nan nan nan nan nan nan nan nan nan nan nan nan nan 1 1 3 6 8 8 10 12 15 15 17 19 20 25 25 27 29 32 32 35 35 34 34 39 45 45 51 63 75 75 86
nan nan nan nan nan nan nan nan nan nan nan nan nan nan nan nan nan nan nan nan nan nan nan nan nan nan nan nan nan nan nan nan nan nan nan nan nan nan nan nan nan nan nan nan nan nan nan nan nan nan nan nan nan nan 0 2 2 5 6 8 8 10 13 16 16 17 18 21 24 24 28 30 31 31 31 33 37 37 43 50 50 60 69 77 77 87
nan nan nan nan nan nan nan nan nan nan nan nan nan nan nan nan nan nan nan nan nan nan nan nan nan nan nan nan nan nan nan nan nan nan nan nan nan nan nan nan nan nan nan nan nan nan nan nan nan nan nan nan nan nan nan 1 1 6 7 8 8 11 13 16 16 18 19 22 26 26 30 30 32 32 34 37 44 44 51 60 60 67 72 77 77 87
nan nan nan nan nan nan nan nan 0 0 nan nan nan nan nan nan nan nan nan nan nan nan nan nan nan nan nan nan nan nan nan nan nan nan nan nan nan nan nan nan nan nan nan nan nan nan nan nan nan nan nan nan nan nan 0 2 2 5 6 8 8 11 14 17 17 18 21 24 29 29 32 33 36 36 40 45 48 48 52 57 57 69 76 81 81 88
nan nan nan nan nan nan nan nan nan nan nan nan nan nan nan nan nan nan nan nan nan nan nan nan nan nan nan nan nan nan nan nan nan nan nan nan nan nan nan nan nan nan nan nan nan nan nan nan nan nan nan nan nan nan nan 1 1 4 7 10 10 13 16 18 18 20 20 26 31 31 32 35 39 39 44 44 45 45 51 58 58 69 76 81 81 86
nan nan nan nan nan nan nan 2 2 2 nan nan nan nan nan nan nan nan nan nan nan nan nan nan nan nan nan nan nan nan nan nan nan nan nan nan nan nan nan nan nan nan nan nan nan nan nan nan nan nan nan nan nan nan nan 1 1 5 8 13 13 15 18 19 19 22 24 27 31 31 34 38 40 40 41 43 48 48 55 64 64 71 75 79 79 86
nan nan nan nan nan nan nan 5 2 2 1 nan nan nan nan nan nan nan nan nan nan nan nan nan nan nan nan nan nan nan nan nan nan nan nan nan nan nan nan nan nan nan nan nan nan nan nan nan nan nan nan nan nan nan nan 1 1 6 12 16 16 19 20 20 20 23 26 28 31 31 35 37 39 39 41 44 51 51 59 67 67 74 80 81 81 86
nan nan nan nan nan 1 3 4 0 0 1 nan nan nan nan nan nan nan nan nan nan nan nan nan nan nan nan nan nan nan nan nan nan nan nan nan nan nan nan nan nan nan nan nan nan nan nan nan nan nan nan nan nan nan nan 2 2 9 16 18 18 19 19 18 18 22 24 27 31 31 35 35 38 38 43 47 52 52 61 69 69 76 80 79 79 91
nan nan nan 0 0 5 4 nan nan nan nan nan nan nan nan nan nan nan nan nan nan nan nan nan nan nan nan nan nan nan nan nan nan nan nan nan nan nan nan nan nan nan nan nan nan nan nan nan nan nan nan nan nan nan 0 4 4 13 18 18 18 16 14 14 14 17 22 28 31 31 32 35 40 40 43 50 57 57 61 71 71 82 85 90 90 94
nan nan 2 4 4 3 5 nan nan nan nan nan nan nan nan nan nan nan nan nan nan nan nan nan nan nan nan nan nan nan nan nan nan nan nan nan nan nan nan nan nan nan nan nan nan nan nan nan nan nan nan nan nan nan 0 6 6 13 13 11 11 8 8 10 10 15 22 28 29 29 31 36 39 39 45 50 60 60 66 79 79 91 100 103 103 98
nan 1 1 nan nan nan nan nan nan nan nan nan nan nan nan nan nan nan nan nan nan nan nan nan nan nan nan nan nan nan nan nan nan nan nan nan nan nan nan nan nan nan nan nan nan nan nan nan nan nan nan nan nan nan 1 6 6 9 7 4 4 3 5 10 10 15 23 28 29 29 32 36 39 39 47 56 61 61 75 88 88 100 110 105 105 105
2 0 nan nan nan nan nan nan nan nan nan nan nan nan nan nan nan nan nan nan nan nan nan nan nan nan nan nan nan nan nan nan nan nan nan nan nan nan nan nan nan nan nan nan nan nan nan nan nan nan nan nan nan nan 1 3 3 3 1 1 1 2 5 10 10 15 20 25 28 28 33 34 39 39 45 54 65 65 76 88 88 102 108 108 108 90
nan nan nan 2 2 nan nan nan nan nan nan nan nan nan nan nan nan nan nan nan nan nan nan nan nan nan nan nan nan nan nan nan nan nan nan nan nan nan nan nan nan nan nan nan nan nan nan nan nan nan nan nan nan nan 0 0 0 0 0 0 0 2 4 8 8 13 17 21 26 26 30 36 38 38 45 56 64 64 74 90 90 99 102 96 96 79
0 0 1 6 6 13 7 7 9 9 nan nan nan nan nan nan nan nan nan nan nan nan nan nan nan nan nan nan nan nan nan nan nan nan nan nan nan nan nan nan nan nan nan nan nan nan nan nan nan nan nan nan nan nan nan nan nan nan nan 0 0 1 3 7 7 9 13 16 20 20 28 35 40 40 46 56 64 64 74 84 84 97 93 78 78 64
5 7 10 10 10 10 11 15 17 17 27 23 0 0 nan nan nan nan nan nan nan nan nan nan nan nan nan nan nan nan nan nan nan nan nan nan nan nan nan nan nan nan nan nan nan nan nan nan nan nan nan nan nan nan nan nan nan nan nan nan nan 0 2 4 4 7 10 12 17 17 27 33 39 39 45 54 61 61 71 76 76 86 81 72 72 59
3 2 4 7 7 7 10 10 13 13 21 29 38 38 nan nan nan nan nan nan nan nan nan nan nan nan nan nan nan nan nan nan nan nan nan nan nan nan nan nan nan nan nan nan nan nan nan nan nan nan nan nan nan nan nan nan nan nan nan nan nan 0 1 3 3 5 8 12 19 19 27 34 42 42 47 54 59 59 68 75 75 82 75 41 41 7
1 1 3 7 7 8 8 9 9 9 16 22 28 28 nan nan nan nan nan nan nan nan nan nan nan nan nan nan nan nan nan nan nan nan nan nan nan nan nan nan nan nan nan nan nan nan nan nan nan nan nan nan nan nan nan nan nan nan nan nan nan nan 0 2 2 4 8 15 20 20 28 35 41 41 47 51 58 58 65 73 73 80 56 24 24 8
0 1 1 3 3 3 2 nan 4 4 12 14 14 14 2 nan nan nan nan nan nan nan nan nan nan nan nan nan nan nan nan nan nan nan nan nan nan nan nan nan nan nan nan nan nan nan nan nan nan nan nan nan nan nan nan nan nan nan nan nan nan nan 0 1 1 3 9 14 22 22 29 37 42 42 45 49 56 56 60 74 74 63 26 7 7 8
nan nan nan nan nan nan nan nan nan nan 5 7 5 5 nan nan nan nan nan nan nan nan nan nan nan nan nan nan nan nan nan nan nan nan nan nan nan nan nan nan nan nan nan nan nan nan nan nan nan nan nan nan nan nan nan nan nan nan nan nan nan nan nan 0 0 2 8 13 21 21 31 37 42 42 43 46 52 52 58 71 71 55 17 7 7 5
nan nan nan nan nan nan nan nan nan nan nan nan nan nan nan nan nan nan nan nan nan nan nan nan nan nan nan nan nan nan nan nan nan nan nan nan nan nan nan nan nan nan nan nan nan nan nan nan nan nan nan nan nan nan nan nan nan nan nan nan nan nan nan nan nan nan 0 9 21 21 31 36 39 39 42 44 47 47 53 61 61 56 23 10 10 18
nan nan nan nan nan nan nan nan nan nan nan nan nan nan nan nan nan nan nan nan nan nan nan nan nan 0 nan nan nan nan nan nan nan nan 3 nan nan nan nan nan nan nan nan nan nan nan nan nan nan nan nan nan nan nan nan nan nan nan nan nan nan nan nan nan nan nan nan 0 5 5 26 33 36 36 38 42 47 47 51 55 55 57 50 12 12 18
nan nan nan nan nan nan nan nan nan nan nan nan nan nan nan nan nan nan nan nan nan nan nan nan nan nan 0 0 nan nan nan nan nan nan nan nan nan nan nan nan nan nan nan nan nan nan nan nan nan nan nan nan nan nan nan nan nan nan nan nan nan nan nan nan nan nan nan nan nan nan nan 4 25 25 27 36 41 41 49 53 53 56 55 37 37 20
nan nan nan nan nan nan nan nan nan nan nan nan nan nan nan nan nan nan nan nan nan nan nan nan nan nan nan nan nan nan nan nan nan nan nan nan nan nan nan nan nan nan nan nan nan nan nan nan nan nan nan nan nan nan nan nan nan nan nan nan nan nan nan nan nan nan nan nan nan nan nan nan 1 1 7 24 37 37 44 47 47 50 51 58 58 41
nan nan nan nan nan nan nan nan nan nan nan nan nan nan nan nan nan nan nan nan nan nan nan nan nan nan nan nan nan nan nan nan nan nan nan nan nan nan nan nan nan nan nan nan nan nan nan nan nan nan nan nan nan nan nan nan nan nan nan nan nan nan nan nan nan nan nan nan nan nan nan nan 0 0 2 28 38 38 41 42 42 43 46 50 50 49
nan nan nan nan nan nan nan nan nan nan nan nan nan nan nan nan nan nan nan nan nan nan nan nan nan nan nan nan nan nan nan nan nan nan nan nan nan nan nan nan nan nan nan nan nan nan nan nan nan nan nan nan nan nan nan nan nan nan nan nan nan nan nan nan nan nan nan nan 2 2 1 0 1 1 5 29 24 24 29 37 37 36 41 43 43 46
nan nan nan nan nan nan nan nan nan nan nan nan nan nan nan nan nan nan nan nan nan nan nan nan nan nan nan nan nan nan nan nan nan nan nan nan nan nan nan nan nan nan nan nan nan nan nan nan nan nan nan nan nan nan nan nan nan nan nan nan nan nan nan nan nan nan nan 1 5 5 5 1 0 0 1 3 nan nan 0 1 1 17 29 32 32 39
nan nan nan nan nan nan nan nan nan nan nan nan nan nan nan nan nan nan nan nan nan nan nan nan nan nan nan nan nan nan nan nan nan nan nan nan nan nan nan nan nan nan nan nan nan nan nan nan nan nan nan nan nan nan nan nan nan nan nan nan nan nan nan nan nan nan nan 0 3 3 0 nan nan nan 0 nan nan nan 0 nan nan 5 3 1 1 18
nan nan nan nan nan nan nan nan nan nan nan nan nan nan nan nan nan nan nan nan nan nan nan nan nan nan nan nan nan nan nan nan nan nan nan nan nan nan nan nan nan nan nan nan nan nan nan nan nan nan nan nan nan nan nan nan nan nan nan nan nan nan nan nan nan nan nan nan nan nan nan nan 0 0 0 nan nan nan 0 nan nan 0 3 0 0 nan
nan nan nan nan nan nan nan nan nan nan nan nan nan nan nan nan nan nan nan nan nan nan nan nan nan nan nan nan nan nan nan nan nan nan nan nan nan nan nan nan nan nan nan nan nan nan nan nan nan nan nan nan nan nan nan nan nan nan 0 nan nan nan nan nan nan nan nan nan nan nan 2 2 3 3 0 1 nan nan nan nan nan nan 1 nan nan nan
nan nan nan nan nan nan nan nan nan nan nan nan nan nan nan nan nan nan nan nan nan nan nan nan nan nan nan nan nan nan nan nan nan nan nan nan nan nan nan nan nan nan nan nan nan nan nan nan nan nan nan nan nan nan nan nan nan nan nan nan nan nan nan 2 2 nan nan nan nan nan 5 1 nan nan 0 0 nan nan 0 nan nan 4 3 nan nan nan
nan nan nan nan nan nan nan nan nan nan nan nan nan nan nan nan nan nan nan nan nan nan nan nan nan nan nan nan nan nan nan nan nan nan nan nan nan nan nan nan nan nan nan nan nan nan nan nan nan nan nan nan nan nan nan nan nan nan nan nan nan nan nan nan nan nan nan nan nan nan nan nan nan nan nan nan nan nan nan 2 2 12 6 nan nan nan
nan nan nan nan nan nan nan nan nan nan nan nan nan nan nan nan nan nan nan nan nan nan nan nan nan nan nan nan nan nan nan nan nan nan nan nan nan nan nan nan nan nan nan nan nan nan nan nan nan nan nan nan nan nan nan nan nan nan nan nan nan nan nan nan nan nan nan nan nan nan nan nan nan nan nan nan nan nan nan nan nan nan nan nan nan nan
nan nan nan nan nan nan nan nan nan nan nan nan nan nan nan nan nan nan nan nan nan nan nan nan nan nan nan nan nan nan nan nan nan nan nan nan nan nan nan nan nan nan nan nan nan nan nan nan nan nan nan nan nan nan nan nan nan nan nan nan nan nan nan nan nan nan nan nan nan nan nan nan nan nan nan nan nan nan nan nan nan nan nan nan nan nan
nan nan nan nan nan nan nan nan nan nan nan nan nan nan nan nan nan nan nan nan nan nan nan nan nan nan nan nan nan nan nan nan nan nan nan nan nan nan nan nan nan nan nan nan nan nan nan nan nan nan nan nan nan nan nan nan nan nan nan nan nan nan nan nan nan nan nan nan nan nan nan nan nan nan nan nan nan nan nan nan nan nan nan nan nan nan
nan nan nan nan nan nan nan nan nan nan nan nan nan nan nan nan nan nan nan nan nan nan nan nan nan nan nan nan nan nan nan nan nan nan nan nan nan nan nan nan nan nan nan nan nan nan nan nan nan nan nan nan nan nan nan nan nan nan nan nan nan nan nan nan nan nan nan nan nan nan nan nan nan nan nan nan nan nan nan nan nan nan nan nan nan nan
nan nan nan nan nan nan nan nan nan nan nan nan nan nan nan nan nan nan nan nan nan nan nan nan nan nan nan nan nan nan nan nan nan nan nan nan nan nan nan nan nan nan nan nan nan nan nan nan nan nan nan nan nan nan nan nan nan nan nan nan nan nan nan nan nan nan nan nan nan nan nan nan nan nan nan nan nan nan nan nan nan nan nan nan nan nan
nan nan nan nan nan nan nan nan nan nan nan nan nan nan nan nan nan nan nan nan nan nan nan nan nan nan nan nan nan nan nan nan nan nan nan nan nan nan nan nan nan nan nan nan nan nan nan nan nan nan nan nan nan nan nan nan nan nan nan nan nan nan nan nan nan nan nan nan nan nan nan nan nan nan nan nan nan nan nan nan nan nan nan nan nan nan
nan nan nan nan nan nan nan nan nan nan nan nan nan nan nan nan nan nan nan nan nan nan nan nan nan nan nan nan nan nan nan nan nan nan nan nan nan nan nan nan nan nan nan nan nan nan nan nan nan nan nan nan nan nan nan nan nan nan nan nan nan nan nan nan nan nan nan nan nan nan nan nan nan nan nan nan nan nan nan nan nan nan nan nan nan nan
nan nan nan nan nan nan nan nan nan nan nan nan nan nan nan nan nan nan nan nan nan nan nan nan nan nan nan nan nan nan nan nan nan nan nan nan nan nan nan nan nan nan nan nan nan nan nan nan nan nan nan 0 nan nan nan nan nan nan nan nan nan nan nan nan nan nan nan nan nan nan nan nan 0 0 nan nan nan nan nan nan nan nan nan nan nan nan
CIN
nan nan nan nan nan nan nan nan nan nan nan nan nan nan nan nan nan nan nan nan nan nan nan nan nan nan nan nan nan nan nan -0 -0 -0 -0 -0 -0 -0 -0 -0 -0 -0 -0 -0 -0 -0 -0 -0 -0 -0 -0 -0 -0 -0 -0 -0 -0 -0 -0 -0 -0 -0 -0 -0 -0 -0 -0 -0 -0 -0 -0 -0 -0 -0 -0 -0 -0 -0 -0 -0 -0 -0 -0 -0 -0 -0
nan nan nan nan nan nan nan nan nan nan nan nan nan nan nan nan nan nan nan nan nan nan nan nan nan nan nan nan nan nan nan nan -0 -0 -0 -0 -0 -0 -0 -0 -0 -0 -0 -0 -0 -0 -0 -0 -0 -0 -0 -0 -0 -0 -0 -0 -0 -0 -0 -0 -0 -0 -0 -0 -0 -0 -0 -0 -0 -0 -0 -0 -0 -0 -0 -0 -0 -0 -0 -0 -0 -0 -0 -0 -0 -0
nan nan nan nan nan nan nan nan nan nan nan nan nan nan nan nan nan nan nan nan nan nan nan nan nan nan nan nan nan nan nan nan -0 -0 -0 -0 -0 -0 -0 -0 -0 -0 -0 -0 -0 -0 -0 -0 -0 -0 -0 -0 -0 -0 -0 -0 -0 -0 -0 -0 -0 -0 -0 -0 -0 -0 -0 -0 -0 -0 -0 -0 -0 -0 -0 -0 -0 -0 -0 -0 -0 -0 -0 -0 -0 -0
nan nan nan nan nan nan nan nan nan nan nan nan nan nan nan nan nan nan nan nan nan nan nan nan nan nan nan nan nan nan nan nan -0 -0 -0 -0 -0 -0 -0 -0 -0 -0 -0 -0 -0 -0 -0 -0 -0 -0 -0 -0 -0 -0 -0 -0 -0 -0 -0 -0 -0 -0 -0 -0 -0 -0 -0 -0 -0 -0 -0 -0 -0 -0 -0 -0 -0 -0 -0 -0 -0 -0 -0 -0 -0 -0
nan nan nan nan nan nan nan nan nan nan nan nan nan nan nan nan nan nan nan nan nan nan nan nan nan nan nan nan nan nan nan nan nan nan nan nan nan nan nan -0 -0 -0 -0 -0 -0 -0 -0 -0 -0 -0 -0 -0 -0 -0 -0 -0 -0 -0 -0 -0 -0 -0 -0 -0 -0 -0 -0 -0 -0 -0 -0 -0 -0 -0 -0 -0 -0 -0 -0 -0 -0 -0 -0 -0 -0 -0
nan nan nan nan nan nan nan nan nan nan nan nan nan nan nan nan nan nan nan nan nan nan nan nan nan nan nan nan nan nan nan nan nan nan nan nan nan nan nan -0 -0 -0 -0 -0 -0 -0 -0 -0 -0 -0 -0 -0 -0 -0 -0 -0 -0 -0 -0 -0 -0 -0 -0 -0 -0 -0 -0 -0 -0 -0 -0 -0 -0 -0 -0 -0 -0 -0 -0 -0 -0 -0 -0 -0 -0 -0
nan nan nan nan nan nan nan nan nan nan nan nan nan nan nan nan nan nan nan nan nan nan nan nan nan nan nan nan nan nan nan nan nan nan nan nan nan nan nan nan nan -0 -0 -0 -0 -0 -0 -0 -0 -0 -0 -0 -0 -0 -0 -0 -0 -0 -0 -0 -0 -0 -0 -0 -0 -0 -0 -0 -0 -0 -0 -0 -0 -0 -0 -0 -0 -0 -0 -0 -0 -0 -0 -0 -0 -0
nan nan nan nan nan nan nan nan nan nan nan nan nan nan nan nan nan nan nan nan nan nan nan nan nan nan nan nan nan nan nan nan nan nan nan nan nan nan nan nan nan nan nan -0 -0 -0 -0 -0 -0 -0 -0 -0 -0 -0 -0 -0 -0 -0 -0 -0 -0 -0 -0 -0 -0 -0 -0 -0 -0 -0 -0 -0 -0 -0 -0 -0 -0 -0 -0 -0 -0 -0 -0 -0 -0 -0
nan nan nan nan nan nan nan nan nan nan nan nan nan nan nan nan nan nan nan nan nan nan nan nan nan nan nan nan nan nan nan nan nan nan nan nan nan nan nan nan nan nan nan nan nan nan nan -0 -0 -0 -0 -0 -0 -0 -0 -0 -0 -0 -0 -0 -0 -0 -0 -0 -0 -0 -0 -0 -0 -0 -0 -0 -0 -0 -0 -0 -0 -0 -0 -0 -0 -0 -0 -0 -0 -0
nan nan nan nan nan nan nan nan nan nan nan nan nan nan nan nan nan nan nan nan nan nan nan nan nan nan nan nan nan nan nan nan nan nan nan nan nan nan nan nan nan nan nan nan nan nan nan nan nan nan -0 -0 -0 -0 -0 -0 -0 -0 -0 -0 -0 -0 -0 -0 -0 -0 -0 -0 -0 -0 -0 -0 -0 -0 -0 -0 -0 -0 -0 -0 -0 -0 -0 -0 -0 -0
nan nan nan nan nan nan nan nan nan nan nan nan nan nan nan nan nan nan nan nan nan nan nan nan nan nan nan nan nan nan nan nan nan nan nan nan nan nan nan nan nan nan nan nan nan nan nan nan nan nan nan nan nan nan nan -0 -0 -0 -0 -0 -0 -0 -0 -0 -0 -0 -0 -0 -0 -0 -0 -0 -0 -0 -0 -0 -0 -0 -0 -0 -0 -0 -0 -0 -0 -0
nan nan nan nan nan nan nan nan nan nan nan nan nan nan nan nan nan nan nan nan nan nan nan nan nan nan nan nan nan nan nan nan nan nan nan nan nan nan nan nan nan nan nan nan nan nan nan nan nan nan nan nan nan nan nan nan nan -0 -0 -0 -0 -0 -0 -0 -0 -0 -0 -0 -0 -0 -0 -0 -0 -0 -0 -0 -0 -0 -0 -0 -0 -0 -0 -0 -0 -0
nan nan nan nan nan nan nan nan nan nan nan nan nan nan nan nan nan nan nan nan nan nan nan nan nan nan nan nan nan nan nan nan nan nan nan nan nan nan nan nan nan nan nan nan nan nan nan nan nan nan nan nan nan nan nan -0 -0 -0 -0 -0 -0 -0 -0 -0 -0 -0 -0 -0 -0 -0 -0 -0 -0 -0 -0 -0 -0 -0 -0 -0 -0 -0 -0 -0 -0 -0
nan nan nan nan nan nan nan nan nan nan nan nan nan nan nan nan nan nan nan nan nan nan nan nan nan nan nan nan nan nan nan nan nan nan nan nan nan nan nan nan nan nan nan nan nan nan nan nan nan nan nan nan nan nan -0 -0 -0 -0 -0 -0 -0 -0 -0 -0 -0 -0 -0 -0 -0 -0 -0 -0 -0 -0 -0 -0 -0 -0 -0 -0 -0 -0 -0 -0 -0 -0
nan nan nan nan nan nan nan nan nan nan nan nan nan nan nan nan nan nan nan nan nan nan nan nan nan nan nan nan nan nan nan nan nan nan nan nan nan nan nan nan nan nan nan nan nan nan nan nan nan nan nan nan nan nan nan -0 -0 -0 -0 -0 -0 -0 -0 -0 -0 -0 -0 -0 -0 -0 -0 -0 -0 -0 -0 -0 -0 -0 -0 -0 -0 -0 -0 -0 -0 -0
nan nan nan nan nan nan nan nan -14 -14 nan nan nan nan nan nan nan nan nan nan nan nan nan nan nan nan nan nan nan nan nan nan nan nan nan nan nan nan nan nan nan nan nan nan nan nan nan nan nan nan nan nan nan nan -0 -0 -0 -0 -0 -0 -0 -0 -0 -0 -0 -0 -0 -0 -0 -0 -0 -0 -0 -0 -0 -0 -0 -0 -0 -0 -0 -0 -0 -0 -0 -0
nan nan nan nan nan nan nan nan nan nan nan nan nan nan nan nan nan nan nan nan nan nan nan nan nan nan nan nan nan nan nan nan nan nan nan nan nan nan nan nan nan nan nan nan nan nan nan nan nan nan nan nan nan nan nan -0 -0 -0 -0 -0 -0 -0 -0 -0 -0 -0 -0 -0 -0 -0 -0 -0 -0 -0 -0 -0 -0 -0 -0 -0 -0 -0 -0 -0 -0 -0
nan nan nan nan nan nan nan -8 -7 -7 nan nan nan nan nan nan nan nan nan nan nan nan nan nan nan nan nan nan nan nan nan nan nan nan nan nan nan nan nan nan nan nan nan nan nan nan nan nan nan nan nan nan nan nan nan -0 -0 -0 -0 -0 -0 -0 -0 -0 -0 -0 -0 -0 -0 -0 -0 -0 -0 -0 -0 -0 -0 -0 -0 -0 -0 -0 -0 -0 -0 -0
nan nan nan nan nan nan nan -0 -5 -5 -9 nan nan nan nan nan nan nan nan nan nan nan nan nan nan nan nan nan nan nan nan nan nan nan nan nan nan nan nan nan nan nan nan nan nan nan nan nan nan nan nan nan nan nan nan -0 -0 -0 -0 -0 -0 -0 -0 -0 -0 -0 -0 -0 -0 -0 -0 -0 -0 -0 -0 -0 -0 -0 -0 -0 -0 -0 -0 -0 -0 -0
nan nan nan nan nan -6 -2 -0 -10 -10 -9 nan nan nan nan nan nan nan nan nan nan nan nan nan nan nan nan nan nan nan nan nan nan nan nan nan nan nan nan nan nan nan nan nan nan nan nan nan nan nan nan nan nan nan nan -0 -0 -0 -0 -0 -0 -0 -0 -0 -0 -0 -0 -0 -0 -0 -0 -0 -0 -0 -0 -0 -0 -0 -0 -0 -0 -0 -0 -0 -0 -0
nan nan nan -10 -10 -0 -0 nan nan nan nan nan nan nan nan nan nan nan nan nan nan nan nan nan nan nan nan nan nan nan nan nan nan nan nan nan nan nan nan nan nan nan nan nan nan nan nan nan nan nan nan nan nan nan -0 -0 -0 -0 -0 -0 -0 -0 -0 -0 -0 -0 -0 -0 -0 -0 -0 -0 -0 -0 -0 -0 -0 -0 -0 -0 -0 -0 -0 -0 -0 -0
nan nan -2 -4 -4 -2 -0 nan nan nan nan nan nan nan nan nan nan nan nan nan nan nan nan nan nan nan nan nan nan nan nan nan nan nan nan nan nan nan nan nan nan nan nan nan nan nan nan nan nan nan nan nan nan nan -0 -0 -0 -0 -0 -0 -0 -0 -0 -0 -0 -0 -0 -0 -0 -0 -0 -0 -0 -0 -0 -0 -0 -0 -0 -0 -0 -0 -0 -0 -0 -0
nan -4 -4 nan nan nan nan nan nan nan nan nan nan nan nan nan nan nan nan nan nan nan nan nan nan nan nan nan nan nan nan nan nan nan nan nan nan nan nan nan nan nan nan nan nan nan nan nan nan nan nan nan nan nan -0 -0 -0 -0 -0 -0 -0 -0 -0 -0 -0 -0 -0 -0 -0 -0 -0 -0 -0 -0 -0 -0 -0 -0 -0 -0 -0 -0 -0 -0 -0 -0
-4 -11 nan nan nan nan nan nan nan nan nan nan nan nan nan nan nan nan nan nan nan nan nan nan nan nan nan nan nan nan nan nan nan nan nan nan nan nan nan nan nan nan nan nan nan nan nan nan nan nan nan nan nan nan -0 -0 -0 -0 -0 -0 -0 -0 -0 -0 -0 -0 -0 -0 -0 -0 -0 -0 -0 -0 -0 -0 -0 -0 -0 -0 -0 -0 -0 -0 -0 -0
nan nan nan -24 -24 nan nan nan nan nan nan nan nan nan nan nan nan nan nan nan nan nan nan nan nan nan nan nan nan nan nan nan nan nan nan nan nan nan nan nan nan nan nan nan nan nan nan nan nan nan nan nan nan nan -0 -0 -0 -0 -0 -0 -0 -0 -0 -0 -0 -0 -0 -0 -0 -0 -0 -0 -0 -0 -0 -0 -0 -0 -0 -0 -0 -0 -0 -0 -0 -0
-23 -19 -17 -15 -15 -0 -2 -0 -0 -0 nan nan nan nan nan nan nan nan nan nan nan nan nan nan nan nan nan nan nan nan nan nan nan nan nan nan nan nan nan nan nan nan nan nan nan nan nan nan nan nan nan nan nan nan nan nan nan nan nan -0 -0 -0 -0 -0 -0 -0 -0 -0 -0 -0 -0 -0 -0 -0 -0 -0 -0 -0 -0 -0 -0 -0 -0 -0 -0 -0
-0 -0 -0 -0 -0 -0 -0 -0 -0 -0 -0 -0 -32 -32 nan nan nan nan nan nan nan nan nan nan nan nan nan nan nan nan nan nan nan nan nan nan nan nan nan nan nan nan nan nan nan nan nan nan nan nan nan nan nan nan nan nan nan nan nan nan nan -0 -0 -0 -0 -0 -0 -0 -0 -0 -0 -0 -0 -0 -0 -0 -0 -0 -0 -0 -0 -0 -0 -0 -0 -0
-0 -0 -0 -0 -0 -0 -0 -0 -0 -0 -0 -0 -0 -0 nan nan nan nan nan nan nan nan nan nan nan nan nan nan nan nan nan nan nan nan nan nan nan nan nan nan nan nan nan nan nan nan nan nan nan nan nan nan nan nan nan nan nan nan nan nan nan -0 -0 -0 -0 -0 -0 -0 -0 -0 -0 -0 -0 -0 -0 -0 -0 -0 -0 -0 -0 -0 -0 -0 -0 -9
-0 -0 -0 -0 -0 -0 -0 -0 -0 -0 -0 -0 -0 -0 nan nan nan nan nan nan nan nan nan nan nan nan nan nan nan nan nan nan nan nan nan nan nan nan nan nan nan nan nan nan nan nan nan nan nan nan nan nan nan nan nan nan nan nan nan nan nan nan -0 -0 -0 -0 -0 -0 -0 -0 -0 -0 -0 -0 -0 -0 -0 -0 -0 -0 -0 -0 -0 -0 -0 -7
-21 -2 -0 -0 -0 -0 -0 nan -0 -0 -0 -0 -0 -0 -5 nan nan nan nan nan nan nan nan nan nan nan nan nan nan nan nan nan nan nan nan nan nan nan nan nan nan nan nan nan nan nan nan nan nan nan nan nan nan nan nan nan nan nan nan nan nan nan -0 -0 -0 -0 -0 -0 -0 -0 -0 -0 -0 -0 -0 -0 -0 -0 -0 -0 -0 -0 -2 -14 -14 -10
nan nan nan nan nan nan nan nan nan nan -0 -0 -0 -0 nan nan nan nan nan nan nan nan nan nan nan nan nan nan nan nan nan nan nan nan nan nan nan nan nan nan nan nan nan nan nan nan nan nan nan nan nan nan nan nan nan nan nan nan nan nan nan nan nan -0 -0 -0 -0 -0 -0 -0 -0 -0 -0 -0 -0 -0 -0 -0 -0 -0 -0 -0 -6 -14 -14 -14
nan nan nan nan nan nan nan nan nan nan nan nan nan nan nan nan nan nan nan nan nan nan nan nan nan nan nan nan nan nan nan nan nan nan nan nan nan nan nan nan nan nan nan nan nan nan nan nan nan nan nan nan nan nan nan nan nan nan nan nan nan nan nan nan nan nan -0 -0 -0 -0 -0 -0 -0 -0 -0 -0 -0 -0 -0 -0 -0 -0 -0 -6 -6 -2
nan nan nan nan nan nan nan nan nan nan nan nan nan nan nan nan nan nan nan nan nan nan nan nan nan -5 nan nan nan nan nan nan nan nan -1 nan nan nan nan nan nan nan nan nan nan nan nan nan nan nan nan nan nan nan nan nan nan nan nan nan nan nan nan nan nan nan nan -0 -0 -0 -0 -0 -0 -0 -0 -0 -0 -0 -0 -0 -0 -0 -0 -5 -5 -2
nan nan nan nan nan nan nan nan nan nan nan nan nan nan nan nan nan nan nan nan nan nan nan nan nan nan -5 -4 nan nan nan nan nan nan nan nan nan nan nan nan nan nan nan nan nan nan nan nan nan nan nan nan nan nan nan nan nan nan nan nan nan nan nan nan nan nan nan nan nan nan nan -10 -0 -0 -0 -0 -0 -0 -0 -0 -0 -0 -0 -0 -0 -0
nan nan nan nan nan nan nan nan nan nan nan nan nan nan nan nan nan nan nan nan nan nan nan nan nan nan nan nan nan nan nan nan nan nan nan nan nan nan nan nan nan nan nan nan nan nan nan nan nan nan nan nan nan nan nan nan nan nan nan nan nan nan nan nan nan nan nan nan nan nan nan nan -8 -8 -0 -0 -0 -0 -0 -0 -0 -0 -0 -0 -0 -0
nan nan nan nan nan nan nan nan nan nan nan nan nan nan nan nan nan nan nan nan nan nan nan nan nan nan nan nan nan nan nan nan nan nan nan nan nan nan nan nan nan nan nan nan nan nan nan nan nan nan nan nan nan nan nan nan nan nan nan nan nan nan nan nan nan nan nan nan nan nan nan nan -8 -8 -2 -0 -0 -0 -0 -0 -0 -0 -0 -0 -0 -0
nan nan nan nan nan nan nan nan nan nan nan nan nan nan nan nan nan nan nan nan nan nan nan nan nan nan nan nan nan nan nan nan nan nan nan nan nan nan nan nan nan nan nan nan nan nan nan nan nan nan nan nan nan nan nan nan nan nan nan nan nan nan nan nan nan nan nan nan -6 -6 -7 -8 -4 -4 -0 -0 -0 -0 -0 -0 -0 -0 -0 -0 -0 -0
nan nan nan nan nan nan nan nan nan nan nan nan nan nan nan nan nan nan nan nan nan nan nan nan nan nan nan nan nan nan nan nan nan nan nan nan nan nan nan nan nan nan nan nan nan nan nan nan nan nan nan nan nan nan nan nan nan nan nan nan nan nan nan nan nan nan nan -7 -0 -0 -0 -7 -14 -14 -8 -4 nan nan -6 -7 -7 -0 -0 -0 -0 -0
nan nan nan nan nan nan nan nan nan nan nan nan nan nan nan nan nan nan nan nan nan nan nan nan nan nan nan nan nan nan nan nan nan nan nan nan nan nan nan nan nan nan nan nan nan nan nan nan nan nan nan nan nan nan nan nan nan nan nan nan nan nan nan nan nan nan nan -15 -1 -1 -9 nan nan nan -13 nan nan nan -7 nan nan -0 -2 -6 -6 -0
nan nan nan nan nan nan nan nan nan nan nan nan nan nan nan nan nan nan nan nan nan nan nan nan nan nan nan nan nan nan nan nan nan nan nan nan nan nan nan nan nan nan nan nan nan nan nan nan nan nan nan nan nan nan nan nan nan nan nan nan nan nan nan nan nan nan nan nan nan nan nan nan -12 -12 -9 nan nan nan -7 nan nan -4 -1 -7 -7 nan
nan nan nan nan nan nan nan nan nan nan nan nan nan nan nan nan nan nan nan nan nan nan nan nan nan nan nan nan nan nan nan nan nan nan nan nan nan nan nan nan nan nan nan nan nan nan nan nan nan nan nan nan nan nan nan nan nan nan -0 nan nan nan nan nan nan nan nan nan nan nan -3 -3 -1 -1 -5 -2 nan nan nan nan nan nan -2 nan nan nan
nan nan nan nan nan nan nan nan nan nan nan nan nan nan nan nan nan nan nan nan nan nan nan nan nan nan nan nan nan nan nan nan nan nan nan nan nan nan nan nan nan nan nan nan nan nan nan nan nan nan nan nan nan nan nan nan nan nan nan nan nan nan nan -2 -2 nan nan nan nan nan -0 -4 nan nan -5 -6 nan nan -9 nan nan -0 -0 nan nan nan
nan nan nan nan nan nan nan nan nan nan nan nan nan nan nan nan nan nan nan nan nan nan nan nan nan nan nan nan nan nan nan nan nan nan nan nan nan nan nan nan nan nan nan nan nan nan nan nan nan nan nan nan nan nan nan nan nan nan nan nan nan nan nan nan nan nan nan nan nan nan nan nan nan nan nan nan nan nan nan -1 -1 -0 -0 nan nan nan
nan nan nan nan nan nan nan nan nan nan nan nan nan nan nan nan nan nan nan nan nan nan nan nan nan nan nan nan nan nan nan nan nan nan nan nan nan nan nan nan nan nan nan nan nan nan nan nan nan nan nan nan nan nan nan nan nan nan nan nan nan nan nan nan nan nan nan nan nan nan nan nan nan nan nan nan nan nan nan nan nan nan nan nan nan nan
nan nan nan nan nan nan nan nan nan nan nan nan nan nan nan nan nan nan nan nan nan nan nan nan nan nan nan nan nan nan nan nan nan nan nan nan nan nan nan nan nan nan nan nan nan nan nan nan nan nan nan nan nan nan nan nan nan nan nan nan nan nan nan nan nan nan nan nan nan nan nan nan nan nan nan nan nan nan nan nan nan nan nan nan nan nan
nan nan nan nan nan nan nan nan nan nan nan nan nan nan nan nan nan nan nan nan nan nan nan nan nan nan nan nan nan nan nan nan nan nan nan nan nan nan nan nan nan nan nan nan nan nan nan nan nan nan nan nan nan nan nan nan nan nan nan nan nan nan nan nan nan nan nan nan nan nan nan nan nan nan nan nan nan nan nan nan nan nan nan nan nan nan
nan nan nan nan nan nan nan nan nan nan nan nan nan nan nan nan nan nan nan nan nan nan nan nan nan nan nan nan nan nan nan nan nan nan nan nan nan nan nan nan nan nan nan nan nan nan nan nan nan nan nan nan nan nan nan nan nan nan nan nan nan nan nan nan nan nan nan nan nan nan nan nan nan nan nan nan nan nan nan nan nan nan nan nan nan nan
nan nan nan nan nan nan nan nan nan nan nan nan nan nan nan nan nan nan nan nan nan nan nan nan nan nan nan nan nan nan nan nan nan nan nan nan nan nan nan nan nan nan nan nan nan nan nan nan nan nan nan nan nan nan nan nan nan nan nan nan nan nan nan nan nan nan nan nan nan nan nan nan nan nan nan nan nan nan nan nan nan nan nan nan nan nan
nan nan nan nan nan nan nan nan nan nan nan nan nan nan nan nan nan nan nan nan nan nan nan nan nan nan nan nan nan nan nan nan nan nan nan nan nan nan nan nan nan nan nan nan nan nan nan nan nan nan nan nan nan nan nan nan nan nan nan nan nan nan nan nan nan nan nan nan nan nan nan nan nan nan nan nan nan nan nan nan nan nan nan nan nan nan
nan nan nan nan nan nan nan nan nan nan nan nan nan nan nan nan nan nan nan nan nan nan nan nan nan nan nan nan nan nan nan nan nan nan nan nan nan nan nan nan nan nan nan nan nan nan nan nan nan nan nan nan nan nan nan nan nan nan nan nan nan nan nan nan nan nan nan nan nan nan nan nan nan nan nan nan nan nan nan nan nan nan nan nan nan nan
nan nan nan nan nan nan nan nan nan nan nan nan nan nan nan nan nan nan nan nan nan nan nan nan nan nan nan nan nan nan nan nan nan nan nan nan nan nan nan nan nan nan nan nan nan nan nan nan nan nan nan -0 nan nan nan nan nan nan nan nan nan nan nan nan nan nan nan nan nan nan nan nan -20 -20 nan nan nan nan nan nan nan nan nan nan nan nan
Wind_Speed
1 1 1 3 3 3 2 3 4 4 4 4 4 4 4 5 4 4 6 5 5 5 5 5 5 6 7 11 13 15 16 16 16 17 17 17 17 17 17 17 17 16 16 16 16 16 15 15 15 15 14 14 14 14 15 15 15 15 15 15 15 15 16 16 17 18 18 19 19 19 20 20 20 20 20 21 21 21 21 21 22 22 22 22 23 23
1 2 2 3 3 3 2 3 4 4 4 3 4 4 4 4 4 4 4 5 5 5 5 5 5 6 6 8 12 15 16 16 17 17 17 17 18 18 18 17 17 17 17 16 16 16 15 15 15 15 14 14 14 14 14 14 14 14 14 14 15 15 16 17 17 18 18 19 19 19 20 20 20 20 20 20 21 21 21 21 21 22 22 22 23 23
2 2 3 3 3 2 2 3 3 4 3 3 3 4 4 4 4 3 3 4 4 5 5 5 5 5 6 7 10 14 16 16 17 17 17 18 18 18 18 18 18 17 17 17 16 16 16 15 15 15 14 14 14 14 14 14 14 14 14 14 15 15 16 17 17 18 18 19 19 19 20 20 20 20 20 20 20 20 21 21 21 22 22 22 22 23
2 2 3 2 2 2 1 1 2 3 3 3 3 4 4 3 3 3 3 4 4 5 5 5 5 5 5 6 8 12 16 16 17 17 17 18 18 18 19 18 18 18 18 17 17 16 16 15 15 15 14 14 14 14 14 14 14 14 14 14 15 15 16 17 17 18 18 19 19 19 20 20 20 20 20 20 20 20 21 21 21 22 22 22 22 23
1 2 2 2 2 2 1 1 2 2 3 3 3 3 3 3 3 3 4 4 4 5 5 5 5 4 4 5 7 11 15 16 17 17 17 18 18 19 19 19 19 18 18 18 17 16 16 16 15 15 14 14 14 14 14 14 14 14 14 14 15 15 16 17 17 18 18 19 19 19 20 20 20 20 20 20 20 20 20 21 21 21 22 22 22 23
1 1 1 2 1 1 1 1 2 2 2 2 3 3 3 3 3 3 3 4 4 4 5 4 4 4 4 5 8 12 15 16 16 16 17 18 19 19 19 19 19 19 18 18 17 17 16 16 15 15 15 14 14 14 14 14 14 14 14 14 15 16 16 17 17 18 18 18 19 19 19 20 20 20 20 20 20 20 20 21 21 21 21 22 22 23
2 1 2 2 1 1 1 1 2 3 2 2 2 2 2 3 3 3 3 3 4 4 4 4 4 4 4 6 8 11 12 13 13 14 15 17 18 19 19 19 19 19 19 18 18 17 16 16 16 15 15 15 15 15 15 14 14 14 14 15 15 16 16 17 17 18 18 18 19 19 19 19 20 20 20 20 20 20 20 20 21 21 21 22 22 22
2 2 2 2 2 1 1 1 2 2 2 2 2 2 2 3 3 3 3 3 3 3 3 4 4 4 4 5 7 8 7 8 8 9 11 13 15 16 17 18 19 19 19 18 18 17 17 17 16 16 15 15 15 15 15 15 15 14 15 15 15 16 17 17 18 18 18 18 19 19 19 19 19 20 20 20 20 20 20 20 20 21 21 21 22 22
1 2 2 1 1 1 1 1 2 2 2 2 2 2 3 3 3 3 3 3 3 3 3 3 4 4 5 5 5 5 6 5 5 6 8 9 10 12 15 16 17 18 18 18 18 18 17 17 17 16 16 16 16 15 15 15 15 15 15 15 16 17 17 18 18 18 18 19 19 19 19 19 19 19 20 20 20 20 20 20 20 21 21 21 22 22
1 1 1 1 1 1 1 1 2 2 2 2 2 2 2 3 3 4 4 4 3 3 3 3 4 5 5 5 5 4 5 6 7 9 11 11 12 13 14 14 14 15 18 18 18 18 18 17 17 17 17 16 16 16 16 16 16 16 16 16 17 17 17 18 18 18 19 19 19 19 19 19 19 20 20 20 20 20 20 20 20 21 21 21 22 22
1 1 1 1 1 1 1 1 1 2 2 2 2 2 2 2 3 3 4 5 5 4 4 4 4 4 5 5 5 4 4 4 6 8 10 11 13 14 14 14 14 15 16 17 17 17 17 17 17 17 17 17 16 16 16 16 16 16 17 17 17 18 18 18 18 19 19 19 19 20 20 20 20 20 20 20 20 20 20 20 20 21 21 21 22 22
1 1 1 1 1 2 2 2 2 2 2 2 3 3 3 2 2 3 4 5 5 5 5 4 4 4 4 5 5 4 4 4 5 5 6 7 8 9 10 10 11 12 13 13 14 15 16 17 17 17 17 16 16 17 17 16 17 17 18 18 18 18 18 18 18 19 19 19 20 20 20 20 20 20 20 20 20 20 20 20 21 21 21 21 22 22
1 1 1 1 2 2 2 2 2 2 2 2 3 3 3 3 3 3 3 4 5 5 5 5 5 4 4 4 4 3 4 4 5 5 5 5 5 5 5 6 6 7 7 7 8 9 12 14 15 15 15 16 16 17 17 17 18 18 18 18 18 18 18 18 18 19 19 19 20 20 20 20 20 20 20 20 20 20 20 20 21 21 21 21 22 22
2 2 2 2 2 2 2 2 2 2 2 2 3 3 3 3 3 3 3 4 4 4 4 5 5 5 4 3 3 3 3 5 5 6 5 5 4 4 4 5 5 5 5 5 5 6 10 10 10 11 13 14 15 16 16 17 18 19 19 19 19 19 18 18 19 19 19 20 20 20 20 20 20 20 20 20 20 20 21 21 21 21 21 22 22 22
1 2 2 2 2 2 1 1 1 2 2 2 3 3 3 4 4 4 4 4 4 4 4 5 5 5 4 3 3 3 4 5 5 6 6 5 5 4 4 5 5 5 5 5 6 6 9 8 7 7 8 10 12 14 17 18 19 19 19 19 19 19 19 19 19 19 19 20 20 20 20 21 21 21 21 21 21 21 21 21 21 21 21 22 22 22
1 2 2 1 2 2 1 1 1 2 2 2 3 3 4 4 4 4 4 4 4 4 4 5 5 5 4 3 3 3 4 5 5 6 7 6 5 4 4 4 5 6 5 5 6 6 7 6 6 6 7 11 15 18 20 20 20 20 20 20 19 19 19 19 19 19 20 20 20 21 21 21 21 21 21 21 21 21 21 21 21 21 21 22 22 22
1 1 1 1 2 2 2 1 1 2 2 3 3 3 3 3 3 4 4 4 4 3 3 4 5 5 5 4 4 4 5 5 6 6 7 6 5 4 4 4 5 6 6 6 6 6 7 7 6 7 8 13 18 21 21 21 21 21 20 20 20 19 19 19 19 20 20 21 21 21 21 21 21 21 22 22 22 22 22 22 21 21 21 22 22 22
1 1 1 1 1 2 2 2 2 2 2 3 3 3 3 3 3 3 3 3 3 3 3 3 3 4 5 5 5 5 5 6 6 6 7 7 6 4 4 4 5 6 6 6 6 6 6 6 6 8 11 17 21 22 22 22 22 21 21 20 20 19 19 19 20 20 21 21 21 22 22 22 22 22 22 22 22 22 22 22 22 22 21 22 22 22
1 1 2 1 1 1 2 2 2 3 3 3 3 3 3 3 3 3 3 3 3 3 3 3 3 3 4 5 6 6 6 5 6 6 7 7 6 4 4 4 5 6 7 7 7 6 6 6 8 12 17 20 22 23 23 22 22 22 21 20 20 19 19 20 21 21 22 22 22 22 22 22 22 22 22 22 22 22 22 22 22 21 21 21 21 21
2 2 2 1 1 1 1 2 3 3 3 3 3 3 3 4 4 4 3 3 3 3 3 3 4 4 4 5 6 7 6 5 5 5 6 6 6 5 4 5 6 7 7 7 6 6 6 6 8 12 17 19 21 23 23 23 22 21 21 20 20 20 20 21 22 22 23 23 22 22 22 22 22 22 22 22 22 22 22 22 21 21 21 21 21 21
2 2 2 2 2 2 2 2 3 3 4 4 3 3 3 3 3 4 4 4 4 3 3 3 4 4 4 6 7 7 6 5 5 5 5 5 5 4 4 5 6 7 8 7 7 6 6 7 7 9 13 18 21 22 23 23 22 21 21 21 21 21 22 23 23 23 23 23 22 22 22 22 22 22 22 22 22 22 22 21 21 21 21 21 20 20
2 2 2 2 2 2 2 1 2 3 3 3 3 3 3 3 4 4 4 4 4 4 4 4 4 5 5 6 6 7 5 5 4 4 4 5 5 5 4 5 6 7 8 7 7 7 7 7 8 9 13 18 21 22 23 22 21 21 21 22 22 23 23 24 23 23 23 22 22 22 22 22 22 22 22 22 22 22 22 22 21 21 21 20 20 20
2 2 2 2 2 1 1 1 1 1 2 2 1 1 2 2 3 3 4 4 4 4 4 4 5 5 5 5 5 5 5 4 4 4 3 4 5 6 5 5 6 7 7 7 7 8 8 8 8 9 12 18 20 21 22 21 21 21 22 23 23 24 24 24 23 23 23 22 22 22 22 22 22 23 23 22 22 22 22 21 21 21 21 20 20 20
2 2 1 1 1 0 1 1 1 1 0 0 0 1 1 1 2 3 3 3 3 3 4 4 5 5 4 4 4 4 4 4 4 3 3 4 5 5 5 6 7 8 9 8 8 8 9 9 8 8 9 14 18 20 21 21 21 22 23 23 24 24 24 23 23 23 23 22 23 23 23 23 23 23 23 22 22 22 22 21 21 21 20 20 20 19
2 2 1 1 1 1 1 1 1 1 1 1 1 1 1 2 3 3 3 3 3 3 4 4 5 5 4 4 4 4 4 4 3 3 3 3 4 5 5 5 7 8 9 9 8 8 8 9 8 8 7 10 14 18 19 21 22 23 24 24 24 24 23 23 23 23 23 23 23 23 23 23 23 23 23 22 22 22 22 21 21 21 20 20 19 19
3 2 2 2 3 4 4 5 6 6 5 3 1 0 1 2 3 3 3 3 3 4 5 5 5 5 4 4 4 4 4 3 3 3 3 3 5 5 5 5 6 8 10 9 9 8 8 9 8 7 6 7 11 15 18 20 22 23 24 24 24 23 23 23 23 23 23 23 24 24 24 23 23 23 23 22 22 22 21 21 21 21 20 19 18 17
4 3 3 4 4 5 6 7 8 9 10 9 7 5 3 3 3 4 4 4 4 4 5 5 5 5 5 4 4 5 5 4 3 3 4 4 5 5 5 5 6 8 10 9 9 8 9 9 8 7 6 5 7 10 16 19 21 23 23 23 23 23 23 23 23 23 23 24 24 24 23 23 23 23 22 22 22 22 21 21 21 20 19 16 14 13
3 3 4 4 5 6 7 8 8 9 10 11 11 10 6 4 3 4 4 4 4 4 4 4 5 5 5 5 5 5 5 3 3 3 4 4 4 5 5 5 6 7 8 9 9 9 8 7 6 6 5 5 6 8 13 17 19 20 21 22 22 22 22 22 23 23 23 23 23 23 23 23 23 22 22 22 22 22 22 21 21 19 16 13 9 8
3 3 4 5 6 7 7 7 8 10 11 11 12 11 7 4 2 3 4 3 4 4 4 4 5 5 5 5 5 5 4 3 3 4 5 4 4 4 5 5 6 6 7 8 8 7 6 5 4 4 4 6 7 8 9 13 14 16 16 19 20 20 21 22 22 23 23 23 23 23 23 22 22 22 22 22 22 22 22 22 20 17 12 9 7 7
3 3 4 4 5 6 6 5 6 8 10 11 11 10 7 3 2 2 3 3 3 4 4 5 5 5 5 6 5 4 3 2 3 4 5 5 4 4 5 6 6 6 7 7 7 7 6 4 3 3 4 7 8 8 8 9 9 10 10 13 15 16 19 21 22 22 22 22 22 22 22 22 22 22 21 21 21 21 22 22 19 15 9 7 6 6
2 2 2 3 3 3 3 3 4 6 8 9 9 8 6 4 2 2 2 2 2 3 4 5 5 6 6 6 5 4 3 3 4 5 5 4 4 5 5 6 6 6 6 5 6 7 7 6 5 5 6 7 8 8 8 8 8 8 7 8 9 12 16 19 20 20 20 21 21 21 22 21 21 21 21 21 21 21 22 22 19 15 9 7 7 6
1 1 2 2 2 3 3 3 4 4 4 5 5 5 5 5 4 3 2 2 2 2 3 4 5 5 5 5 5 4 4 3 5 6 6 4 4 4 4 5 6 6 5 4 5 5 6 7 7 7 7 8 8 8 8 8 8 7 7 8 8 10 14 16 17 17 17 18 19 20 20 20 20 21 21 21 21 21 22 22 20 16 10 8 8 7
1 2 2 3 3 3 3 3 3 3 3 3 3 3 4 4 4 4 3 2 2 2 3 4 5 5 5 5 5 5 4 4 5 7 7 5 4 4 4 5 5 6 5 5 4 5 5 6 7 8 9 8 7 7 8 8 8 7 7 7 8 9 12 13 13 13 13 14 15 15 17 18 18 19 20 20 21 21 22 22 21 18 14 10 8 8
2 3 3 3 3 3 3 3 3 3 3 3 3 3 3 4 4 4 4 3 2 2 2 3 4 5 6 5 5 5 5 4 6 8 8 5 4 4 5 5 5 6 6 5 5 5 5 6 7 8 8 8 7 6 6 7 7 7 6 7 7 8 9 10 10 10 11 10 10 10 11 12 14 16 17 18 19 20 21 22 22 21 19 14 10 8
3 3 3 3 3 3 3 3 3 3 3 3 3 4 4 4 4 4 4 4 3 2 2 3 3 4 5 5 6 6 6 5 7 8 8 5 4 4 5 5 5 5 6 6 6 6 6 7 8 9 9 9 8 6 6 6 6 6 6 7 7 7 8 8 9 9 9 9 8 8 7 8 9 11 13 16 18 20 21 22 22 22 21 18 15 11
2 3 3 3 3 3 3 3 4 4 4 3 3 4 4 4 4 4 4 4 3 3 4 3 3 3 3 4 5 6 6 7 7 8 8 6 5 4 4 4 5 5 5 6 6 6 6 8 9 10 10 9 8 7 6 6 6 7 7 7 8 8 8 8 8 8 8 8 8 8 8 8 9 10 11 15 18 19 21 21 21 21 21 20 18 15
2 2 2 2 2 2 3 3 3 3 3 3 4 4 4 4 4 4 4 4 4 4 4 4 4 4 5 4 4 5 6 7 7 8 8 6 5 4 4 4 5 5 5 6 6 7 7 8 9 10 9 8 8 7 8 8 8 8 8 8 8 8 8 8 8 8 8 9 9 9 9 9 9 10 11 14 16 17 17 18 19 19 20 19 19 18
2 2 2 2 2 2 3 3 3 3 4 4 4 4 5 4 4 4 4 4 4 4 4 4 4 5 7 7 7 7 7 8 8 9 9 6 5 4 4 4 5 5 5 5 6 7 7 8 9 9 9 8 8 9 10 10 10 9 9 8 8 7 8 8 8 8 8 9 9 10 10 10 9 9 10 11 11 10 11 11 13 14 16 16 16 17
2 2 3 3 2 2 2 3 3 4 4 4 4 4 5 4 4 4 3 3 4 4 4 4 4 5 6 7 8 9 9 9 9 9 8 6 4 4 4 4 4 5 4 5 5 6 7 7 8 9 9 9 10 10 9 9 9 10 10 9 8 7 7 7 8 9 8 8 9 10 9 9 9 9 9 9 9 9 9 9 9 11 11 10 11 12
2 2 3 3 3 2 3 3 4 4 4 4 5 5 4 4 4 4 3 4 4 4 4 5 5 5 5 6 7 8 8 8 8 8 6 4 3 3 4 4 4 5 5 4 5 5 6 7 8 9 10 9 10 10 10 9 9 10 11 10 8 7 8 8 9 8 8 7 8 9 9 9 9 9 9 9 9 9 8 8 8 9 9 8 7 7
2 2 3 3 3 3 4 4 4 4 4 4 4 4 4 4 4 4 4 4 4 4 4 5 5 5 5 5 5 6 6 7 7 7 5 4 4 4 4 4 4 4 5 5 5 5 5 7 7 8 8 9 10 11 11 11 11 12 13 10 9 9 10 10 9 8 7 7 8 9 10 10 10 10 10 9 9 8 8 8 8 9 8 7 6 6
2 2 3 3 3 4 4 4 4 4 4 4 4 4 4 4 4 4 4 5 5 4 5 5 5 6 6 5 5 5 5 6 6 6 6 6 5 4 4 4 4 4 4 5 6 6 6 6 7 8 8 8 8 9 10 11 11 11 11 10 11 11 11 9 8 7 7 8 8 9 10 10 10 9 10 9 9 8 8 8 9 10 9 7 6 5
2 2 3 3 3 4 4 4 4 4 4 4 4 4 4 4 4 4 5 5 5 5 5 5 5 5 6 6 6 5 5 4 5 6 6 6 6 5 5 5 5 5 4 5 6 6 6 7 8 8 8 8 8 9 11 11 11 10 9 10 11 10 8 7 7 7 8 8 8 8 8 9 9 9 9 9 8 8 7 8 9 10 9 8 6 5
2 2 2 3 3 4 4 4 4 4 4 4 4 4 4 4 4 5 4 4 5 5 5 5 4 4 5 6 6 6 6 5 5 5 5 6 6 6 6 6 6 5 4 4 5 6 6 7 7 7 7 7 8 9 10 11 10 10 9 10 10 10 8 8 9 9 9 9 8 8 8 9 9 9 9 8 8 7 6 7 6 7 8 7 6 5
2 2 3 3 3 4 4 4 4 4 4 4 4 4 4 4 5 4 4 4 5 5 5 5 5 5 5 6 6 6 6 6 5 5 4 6 8 9 8 6 6 6 5 5 5 5 6 7 8 8 7 7 7 8 9 10 10 10 10 10 10 10 9 9 9 10 10 9 9 9 9 10 10 10 9 8 7 7 6 6 6 6 6 6 6 6
2 2 3 3 3 4 4 4 4 4 4 4 4 4 4 4 4 4 4 4 5 5 5 5 5 5 6 7 7 7 7 7 6 6 5 5 6 6 6 6 6 6 6 6 6 6 6 7 8 8 8 8 8 8 9 9 9 9 9 10 9 9 9 9 9 9 9 9 9 9 10 10 10 9 9 8 8 7 6 6 7 7 7 6 6 6
3 3 3 3 3 3 4 4 4 4 4 5 5 4 4 4 4 5 5 4 4 5 5 5 5 5 6 7 7 7 8 8 8 7 7 7 6 6 5 6 6 7 6 6 6 7 7 7 7 7 7 8 8 8 8 8 8 8 8 9 9 9 9 8 8 8 9 9 10 10 11 11 10 9 9 9 8 7 7 6 6 7 7 6 6 6
3 3 3 3 3 4 4 4 4 4 4 5 5 4 4 5 6 6 5 5 5 5 5 5 5 6 6 6 6 7 8 8 8 8 8 8 7 7 7 6 6 6 6 7 7 7 7 7 7 7 7 6 7 7 7 7 7 7 8 9 9 9 9 9 9 8 9 9 10 11 11 10 9 9 9 9 9 8 8 7 7 6 6 6 6 6
2 2 3 3 3 3 4 4 4 4 4 5 5 5 4 5 7 7 5 5 5 5 5 5 6 6 7 7 7 7 8 8 8 8 8 8 8 8 8 8 7 7 6 6 5 5 5 6 7 7 7 6 6 6 7 7 7 7 7 8 8 9 9 9 9 9 9 10 10 11 10 8 8 8 8 9 10 10 9 9 7 6 5 5 5 6
2 2 3 3 3 3 4 4 4 4 5 5 5 5 5 5 5 5 4 4 5 5 5 5 6 6 7 7 8 8 8 8 8 8 8 8 8 8 8 9 9 9 8 7 6 5 5 5 5 6 7 6 6 5 6 7 7 7 7 7 7 8 9 9 9 9 9 10 10 10 10 8 7 7 7 8 10 11 10 9 8 7 5 5 6 6
3 2 2 2 3 3 3 4 4 4 5 5 5 5 5 5 5 4 4 4 5 5 5 5 5 6 7 8 8 8 8 8 8 8 8 8 8 9 9 9 9 9 9 9 8 8 7 6 5 5 5 6 7 7 5 7 8 8 8 8 7 8 8 9 9 10 10 10 9 9 9 8 7 7 7 8 9 10 10 10 9 8 7 6 7 7
Wind_Direction
55 26 26 44 41 28 4 32 44 43 25 11 2 355 350 347 344 344 352 353 347 338 330 322 318 317 317 320 322 323 324 324 326 328 330 332 333 333 333 332 331 330 329 328 328 327 327 327 327 327 327 327 327 327 327 328 328 328 328 328 328 326 326 326 326 327 328 329 330 330 331 332 333 333 334 335 334 334 333 332 331 330 330 330 330 331
12 19 20 35 39 31 355 20 39 47 33 11 357 350 347 343 340 340 346 345 340 333 325 319 316 314 312 312 318 321 323 324 326 328 331 332 333 333 332 332 331 329 328 327 327 326 326 326 326 326 325 325 325 325 325 325 326 326 325 326 325 325 325 325 326 327 328 329 329 330 330 331 332 333 333 333 333 333 332 331 330 329 330 330 330 330
14 21 13 23 32 32 357 10 31 43 40 14 355 347 345 342 340 340 342 339 334 328 321 316 313 312 309 309 316 321 322 324 327 330 332 333 333 333 332 332 330 329 328 327 326 325 324 324 324 324 324 324 323 323 323 324 324 324 324 324 324 324 324 325 326 326 327 328 329 329 330 331 331 332 332 332 331 331 330 330 329 329 330 330 330 330
21 26 7 11 19 23 357 12 27 34 33 15 356 348 346 343 339 337 337 334 330 324 317 312 310 310 310 309 315 319 323 326 329 331 333 334 334 333 333 332 330 329 327 326 325 324 323 323 323 323 323 322 322 322 322 323 323 323 323 323 323 324 324 325 325 326 327 327 328 328 329 329 330 330 330 330 330 329 329 328 328 329 329 330 330 329
10 26 10 17 12 358 332 17 33 30 23 11 359 349 345 341 335 334 334 332 328 322 316 312 310 311 312 312 315 319 324 327 330 333 334 335 334 334 333 331 330 329 327 326 325 324 323 323 323 322 322 322 321 321 321 322 322 322 322 322 323 323 324 324 325 325 326 326 327 327 328 328 329 329 329 328 328 328 327 327 328 328 328 329 329 328
335 10 25 34 21 350 328 16 32 30 18 7 357 347 338 333 333 334 334 331 326 321 316 313 312 312 314 314 318 321 324 327 331 334 335 335 335 334 333 331 330 329 328 326 325 324 324 323 323 323 322 322 321 321 321 321 321 320 320 321 322 323 323 324 324 325 325 325 326 326 326 327 327 327 327 327 326 326 326 326 326 327 327 327 327 327
319 343 19 29 20 354 341 18 33 35 26 4 352 343 333 331 330 331 327 323 320 316 314 314 315 316 316 315 317 319 322 326 330 334 336 335 335 333 332 331 330 329 328 327 326 325 324 324 324 324 323 323 322 321 321 320 320 319 319 320 321 322 322 323 323 324 324 325 325 325 326 326 326 326 325 325 325 324 324 325 325 325 325 326 326 326
332 340 3 14 12 0 351 5 27 35 34 13 354 343 334 331 328 324 320 316 314 313 314 317 319 319 319 316 315 315 315 321 328 334 336 335 333 332 331 331 330 329 328 327 326 326 325 325 325 325 324 324 323 323 321 320 319 319 319 319 320 320 321 322 323 323 324 324 324 325 325 325 325 325 324 324 323 323 323 323 323 324 324 324 324 325
3 348 347 0 17 17 358 343 355 16 33 23 2 344 334 331 327 324 324 321 319 317 318 322 322 321 319 316 312 311 311 321 331 337 336 335 333 332 331 330 329 328 327 326 326 326 326 325 325 325 325 325 324 323 322 321 319 318 318 318 318 319 320 321 322 323 323 324 324 324 324 324 324 324 323 323 322 322 322 322 322 322 323 323 323 323
28 10 342 333 6 59 49 339 330 346 23 22 7 344 330 328 327 326 328 326 324 323 323 325 324 322 319 317 314 312 313 327 335 337 335 332 330 328 328 328 327 326 325 325 325 325 325 325 325 326 326 326 325 324 322 320 319 317 317 317 317 318 319 320 321 322 323 323 323 323 323 323 323 323 322 322 321 321 321 321 321 321 322 322 322 322
3 4 357 332 346 25 56 357 331 336 10 12 0 342 330 325 325 328 330 327 326 327 328 328 326 325 322 318 315 314 319 329 335 335 333 329 327 326 325 325 324 323 323 323 323 323 323 323 324 325 326 326 324 323 321 319 317 316 316 315 316 317 318 319 320 321 322 323 323 323 323 322 322 322 321 321 321 320 320 320 321 320 321 321 321 321
0 357 4 351 3 15 23 3 350 351 6 5 357 346 335 327 325 328 330 328 327 328 328 326 324 323 319 315 313 315 326 332 333 330 328 324 323 323 322 322 321 321 321 320 319 319 320 322 324 325 325 324 323 321 320 318 316 315 314 315 315 316 317 318 319 320 321 322 322 322 322 321 321 321 321 320 320 320 320 320 320 320 320 320 320 320
10 12 13 11 15 22 20 7 0 359 1 1 354 344 332 328 329 331 329 325 324 324 325 325 323 320 314 307 308 315 331 332 330 326 323 320 319 318 319 319 318 319 318 316 314 315 318 321 323 324 323 322 321 319 318 317 316 315 314 314 315 315 316 317 318 319 320 321 321 321 321 321 320 320 320 319 319 319 319 319 319 320 320 319 319 319
12 14 18 12 12 14 20 16 8 1 356 355 346 338 327 325 329 332 331 325 321 320 322 323 322 319 313 306 305 316 334 330 326 324 321 318 316 314 317 317 317 317 316 315 313 313 317 321 322 321 320 319 318 317 317 316 316 315 315 315 315 315 315 316 317 318 319 319 319 319 319 319 320 320 319 319 319 319 319 319 319 319 319 319 319 318
26 27 25 11 2 358 2 10 8 2 357 351 343 337 330 329 332 334 334 327 323 322 325 324 321 317 311 304 309 325 340 332 326 322 320 316 313 313 317 317 317 317 318 319 317 315 318 320 317 314 314 315 316 317 318 318 317 317 316 315 315 315 315 316 317 317 318 318 318 318 318 318 319 319 319 319 319 319 319 319 319 319 319 319 318 318
43 47 42 16 358 347 337 346 358 2 1 356 347 340 336 333 332 333 333 328 327 328 332 330 327 322 313 306 316 332 342 333 326 320 318 315 314 317 324 322 320 320 321 322 320 318 318 317 315 312 311 315 317 319 320 321 319 318 317 316 315 314 315 315 316 316 317 317 317 317 317 318 318 319 319 319 320 320 320 319 319 319 319 319 319 319
52 54 52 30 2 340 320 332 356 9 9 359 348 339 332 329 328 330 332 329 329 333 335 335 332 328 321 320 327 337 343 333 324 317 315 314 314 319 330 327 323 321 322 322 320 318 318 317 316 316 315 318 320 321 322 321 320 318 317 316 315 315 315 315 316 316 316 316 316 316 316 317 318 318 319 320 320 320 320 320 320 320 320 320 320 320
53 56 54 33 358 326 315 339 4 16 13 357 343 333 328 326 327 329 331 331 333 333 331 331 328 324 321 320 322 327 337 329 321 315 314 312 313 319 331 330 324 320 320 320 318 316 316 315 317 319 318 321 322 322 322 321 320 319 318 317 317 316 316 317 317 317 317 316 316 316 316 317 317 318 319 320 320 320 320 320 320 320 320 321 321 321
55 54 56 31 339 313 321 2 13 14 10 354 341 333 331 329 329 331 331 331 330 328 324 323 319 315 313 308 310 315 325 322 318 315 314 313 314 321 334 334 328 323 320 318 316 315 315 314 316 318 320 321 321 321 321 321 320 319 318 319 319 319 320 320 319 319 318 318 317 317 316 317 317 318 319 320 320 321 321 321 321 320 321 321 321 322
60 49 43 8 325 320 2 23 18 9 3 352 344 339 332 329 329 330 329 325 322 318 315 315 313 311 308 306 308 312 318 321 321 318 314 312 314 320 335 336 330 324 319 316 315 317 318 318 318 319 320 320 320 320 321 320 320 320 321 322 323 324 324 323 322 321 319 319 318 317 317 317 318 319 320 321 321 321 321 321 320 321 321 321 322 323
65 45 26 7 355 0 28 19 5 357 1 0 358 349 337 332 330 328 324 321 319 317 317 316 313 310 308 307 307 309 315 324 326 323 313 311 313 319 335 336 330 322 316 315 316 319 321 320 319 318 318 318 319 319 320 320 321 322 325 327 328 328 326 325 323 321 320 319 318 318 318 319 320 321 322 322 322 322 322 321 321 321 321 322 323 325
70 53 38 32 32 33 29 356 338 346 5 13 8 354 336 333 329 325 321 320 320 320 321 315 310 305 303 300 299 302 312 324 327 323 316 312 312 319 333 334 327 320 315 316 319 322 323 320 317 314 314 316 317 318 319 320 323 326 329 330 330 328 326 324 323 321 320 320 319 320 320 321 322 323 323 323 323 323 323 323 323 323 323 324 326 328
64 63 58 54 57 56 35 300 299 325 8 21 7 330 310 315 314 312 311 311 313 314 314 308 304 300 297 294 296 303 315 327 331 330 324 314 314 319 332 332 325 318 314 317 321 323 321 318 314 312 312 314 315 317 319 322 326 329 331 330 329 327 325 324 323 322 321 321 322 323 323 324 324 325 325 325 325 325 325 325 325 326 327 328 330 332
60 59 63 61 72 138 202 232 251 268 300 295 249 253 258 287 298 301 297 300 307 312 314 311 310 307 302 302 306 312 321 332 344 353 343 317 314 318 328 330 324 318 314 318 321 321 318 314 311 309 308 312 314 317 320 325 328 330 330 328 327 326 324 323 323 323 324 324 325 325 326 326 326 326 326 326 326 327 327 327 328 329 331 333 335 336
60 48 38 22 4 349 333 318 324 326 303 239 226 244 274 313 321 319 311 315 322 325 324 323 321 319 314 319 321 321 322 334 356 11 359 324 313 315 323 328 325 320 315 317 319 319 314 310 308 307 306 309 314 318 323 326 328 328 328 326 325 325 324 324 325 325 326 327 327 327 327 327 327 327 327 327 328 328 329 330 331 333 335 337 338 339
58 41 15 359 354 354 351 347 346 345 341 338 331 335 12 354 350 346 344 341 339 336 333 330 325 322 320 324 326 325 323 332 357 16 5 334 319 316 322 332 329 322 315 316 317 317 312 308 307 307 307 309 316 321 325 327 327 326 325 325 324 324 324 325 326 327 328 328 328 328 328 327 327 327 328 328 329 330 331 332 334 336 339 341 341 339
48 26 3 355 350 348 346 345 344 343 343 343 348 1 33 29 14 359 346 338 338 338 339 334 328 324 324 326 325 322 320 324 346 8 6 341 325 319 325 334 332 324 317 314 314 313 309 306 305 306 307 308 316 323 326 326 325 324 323 323 323 323 324 325 327 328 328 328 328 327 327 327 327 328 328 329 330 331 332 334 337 339 341 343 342 339
40 16 352 345 343 344 345 345 344 343 344 345 350 359 19 32 21 355 333 329 335 341 340 334 329 326 326 324 321 316 312 313 339 3 3 345 328 320 325 333 331 326 319 313 310 307 305 301 299 300 304 312 320 324 324 323 322 321 320 320 321 322 323 325 326 327 327 327 327 326 326 327 327 328 329 330 331 332 334 336 338 340 342 342 339 332
22 3 349 345 346 348 350 350 348 347 347 349 353 359 12 26 18 344 316 323 335 342 336 330 327 323 319 316 314 310 304 305 337 359 1 345 329 320 326 331 330 328 324 316 311 308 303 296 293 298 309 319 323 322 320 320 319 318 316 317 319 320 322 324 325 325 325 325 325 325 326 326 327 328 329 331 332 334 336 337 339 340 342 340 333 325
3 353 346 346 348 350 353 355 355 353 353 354 356 359 5 13 3 329 312 329 341 343 333 328 325 322 320 318 316 313 304 314 341 355 357 344 330 322 329 330 330 330 331 325 320 316 312 307 305 311 319 323 322 320 316 316 315 313 312 314 316 319 321 323 323 323 323 324 324 324 325 326 327 328 330 332 333 335 336 338 338 339 339 335 328 323
339 332 328 335 343 350 358 3 3 1 358 357 357 358 359 358 349 334 327 338 343 339 329 325 323 322 323 323 321 316 307 316 339 349 352 340 327 321 328 326 326 328 334 332 327 320 315 314 316 321 325 322 319 316 314 313 312 311 310 313 315 318 320 321 322 322 322 322 323 323 324 326 327 329 331 333 334 335 336 337 338 338 336 333 327 322
319 323 340 349 355 359 4 5 4 0 356 355 353 352 350 347 342 334 327 328 329 327 324 322 320 319 319 317 312 305 300 306 327 337 340 332 321 316 322 320 319 322 328 328 321 313 309 310 314 319 323 320 316 314 313 312 311 311 313 315 316 317 319 320 321 321 320 321 322 323 324 326 328 330 332 334 335 335 336 336 337 337 336 332 327 323
351 4 15 11 8 5 2 359 356 351 347 344 341 339 339 335 330 324 315 308 306 310 317 318 318 316 314 309 303 297 292 298 315 326 332 327 318 312 314 314 314 315 319 317 310 300 293 299 306 312 314 313 312 311 311 310 310 312 315 317 316 316 317 318 319 318 318 319 320 321 323 326 329 331 333 334 335 334 335 335 335 335 335 331 327 324
16 20 21 13 6 359 353 350 347 343 339 335 331 328 325 320 317 313 306 300 293 290 300 310 314 314 314 310 305 300 296 297 309 318 326 322 313 307 309 310 311 313 316 314 310 303 293 296 301 306 308 308 307 307 307 308 310 313 316 316 314 313 314 316 316 316 316 317 317 318 321 325 329 332 334 334 334 334 334 334 334 334 333 331 327 325
19 18 14 8 1 353 347 343 339 335 332 328 323 319 316 312 307 304 300 296 291 286 285 291 297 302 306 307 305 303 300 299 307 313 317 313 306 302 304 305 307 310 312 312 311 309 303 301 303 305 306 307 307 306 305 307 310 313 313 312 311 309 311 313 314 314 314 315 315 316 320 325 330 333 334 333 333 332 332 332 332 332 331 330 328 326
17 10 1 359 356 351 344 338 334 331 326 321 315 312 309 306 303 299 297 296 297 298 297 291 286 283 285 288 292 293 293 295 301 305 305 300 296 295 296 296 301 306 308 308 308 307 305 303 303 305 306 306 307 308 308 311 313 314 312 312 311 310 309 311 311 312 313 313 315 318 323 328 331 332 331 331 331 331 331 331 330 330 329 329 328 327
14 3 351 349 349 346 340 332 328 325 322 315 313 310 307 303 301 299 299 300 303 306 308 302 295 289 285 279 275 277 282 288 292 293 291 286 282 281 283 288 294 299 301 303 304 304 303 303 304 305 305 304 304 307 311 316 317 317 314 314 314 313 310 311 311 311 310 312 316 320 326 329 330 330 328 329 329 330 329 328 328 327 327 327 326 326
10 358 345 341 340 341 335 326 322 317 314 311 309 307 304 300 298 298 300 303 306 307 307 305 300 295 293 290 286 282 282 283 284 284 282 276 270 267 271 280 287 290 291 292 295 298 301 302 304 306 305 303 301 302 307 312 314 314 312 312 310 309 308 310 311 310 310 312 317 322 327 328 328 327 326 328 328 328 326 325 325 325 325 324 324 324
5 353 339 336 334 329 322 315 311 308 306 305 305 305 303 303 302 302 303 305 305 304 301 299 297 295 293 292 292 292 292 290 288 285 282 274 260 250 254 270 279 283 283 284 286 290 293 295 297 300 302 303 304 304 306 307 308 309 310 310 310 308 309 311 311 310 310 314 319 323 326 327 327 326 325 326 326 324 323 321 321 322 322 321 321 322
359 345 332 327 322 313 304 301 300 300 303 307 310 312 313 316 318 317 315 314 312 310 303 300 297 294 292 292 293 293 294 293 292 291 286 271 247 233 239 257 272 281 284 283 283 284 286 288 290 291 293 296 299 302 304 305 306 309 312 313 314 314 316 313 310 308 310 316 322 324 325 325 325 325 324 324 323 322 320 318 317 317 318 317 318 319
355 339 323 315 312 308 302 299 300 304 311 320 325 327 327 329 327 326 323 323 322 320 319 317 315 311 306 300 294 290 288 288 289 288 282 270 257 250 250 258 268 277 283 283 282 280 280 283 286 288 289 291 294 296 297 299 303 306 310 309 308 307 309 308 308 309 314 320 323 325 324 323 323 323 321 320 318 316 314 313 312 313 313 315 315 316
348 334 316 312 312 311 309 310 316 322 329 333 333 330 326 326 327 326 326 327 326 327 329 330 328 325 322 316 307 299 293 290 290 289 286 279 274 268 265 267 270 274 281 285 284 283 280 281 283 286 289 292 295 297 297 298 300 303 306 305 304 304 303 304 307 314 321 322 324 324 324 322 321 320 318 316 313 310 309 308 309 310 312 312 312 310
335 321 310 309 310 311 315 323 329 334 338 338 333 327 321 321 322 324 325 325 325 325 326 327 326 324 321 318 316 313 308 297 291 290 290 285 280 275 273 271 272 274 280 287 288 287 285 283 283 283 286 290 292 294 294 297 300 302 302 302 304 307 308 311 316 321 322 322 322 322 322 319 317 314 313 310 308 306 304 304 306 307 310 308 306 302
317 314 311 315 320 326 333 338 339 337 336 332 328 322 318 319 322 324 325 322 322 323 326 325 324 321 317 316 317 317 315 309 301 297 294 294 295 295 291 285 280 277 275 280 286 291 293 290 286 283 284 288 290 291 291 294 297 299 299 300 301 303 303 310 317 321 322 321 320 320 319 316 314 311 308 306 304 302 301 302 303 303 304 302 300 297
320 321 325 330 336 339 341 337 333 331 329 327 323 320 317 320 323 326 326 323 323 324 325 327 328 328 325 321 319 318 317 316 314 311 304 304 308 310 306 299 292 286 280 274 274 281 289 292 291 290 289 288 287 287 288 291 294 296 297 299 301 301 302 309 315 319 319 318 317 317 316 314 312 310 307 305 304 303 303 305 304 303 302 301 299 296
340 335 332 333 337 337 334 330 328 329 329 325 322 319 318 321 323 325 325 325 325 325 324 329 333 331 325 321 321 321 320 320 321 321 320 317 315 313 307 300 295 290 286 278 273 271 272 279 285 290 294 293 288 284 282 286 290 294 298 302 306 309 311 314 316 316 315 315 315 315 314 313 311 308 305 305 305 306 305 305 305 305 304 303 300 297
344 337 331 331 331 330 327 327 329 331 330 326 323 321 321 322 324 326 327 329 329 328 327 330 332 328 321 320 320 322 321 321 322 323 325 324 321 318 312 306 300 295 290 286 281 277 272 272 276 282 288 291 290 288 285 285 288 293 300 308 314 316 315 314 314 314 314 314 313 313 314 313 311 308 305 305 306 306 307 306 305 304 304 303 302 299
340 335 329 328 329 329 327 328 331 332 330 326 322 322 325 328 332 334 331 332 332 332 332 333 331 327 321 319 318 319 320 320 321 323 324 325 325 324 322 318 312 305 297 292 289 285 279 275 272 271 273 277 282 287 290 293 296 302 309 315 316 315 312 311 312 313 314 312 310 310 311 311 310 309 308 308 308 309 309 309 308 306 303 302 301 299
333 329 325 326 327 327 325 325 328 330 328 325 324 324 325 328 334 337 332 332 333 334 335 333 330 326 322 320 319 320 321 321 321 322 324 325 325 325 325 324 321 317 312 305 300 293 285 276 269 263 260 261 269 280 290 298 306 311 315 315 314 312 310 310 312 314 313 310 308 307 306 304 304 304 307 309 309 310 311 310 309 307 304 302 301 299
326 321 319 320 322 322 319 321 325 327 326 326 326 326 326 329 332 333 331 331 333 334 332 330 328 325 322 320 321 323 325 325 325 325 325 326 327 328 327 327 327 326 324 322 320 315 307 295 279 268 264 272 283 295 303 309 312 313 312 311 311 311 311 311 312 312 312 309 308 307 305 303 303 305 307 309 309 309 309 310 309 308 308 306 303 300
319 315 315 316 317 315 314 317 321 323 324 326 327 328 329 330 330 331 331 334 334 333 330 329 327 324 322 322 323 325 327 327 327 326 326 327 328 328 328 329 330 331 330 329 329 328 327 323 315 304 291 305 318 325 318 315 314 314 313 312 313 314 312 310 309 309 309 308 307 307 307 307 309 310 312 311 310 309 309 310 310 310 310 310 307 303